Regional Weather Roundup
Issued by NWS

Home | Current Version | Previous Version | Text Only | Print | Product List | Glossary Off
Versions: 1 2 3 4 5 6 7 8 9 10 11 12 13 14 15 16 17 18 19 20 21 22 23 24 25 26 27 28 29 30 31 32 33 34 35 36 37 38 39 40 41 42 43 44 45 46 47 48 49 50

000
ASUS43 KBIS 161720
RWRND

NORTH DAKOTA REGIONAL WEATHER ROUNDUP
NATIONAL WEATHER SERVICE BISMARCK ND
1200 PM CDT WED APR 16 2014

NOTE: "FAIR" INDICATES FEW OR NO CLOUDS BELOW 12,000 FEET WITH NO
SIGNIFICANT WEATHER AND/OR OBSTRUCTIONS TO VISIBILITY.


NDZ001>003-009>011-017-161800-
NORTHWEST NORTH DAKOTA

CITY           SKY/WX    TMP DP  RH WIND       PRES   REMARKS
WILLISTON      CLOUDY    26  21  81 E14       30.12R WCI  14
MINOT          LGT SNOW  25  18  74 NE12      30.15R WCI  14
MINOT AFB      MIX PCPN  27  21  80 NE15      30.15R WCI  15
$$

NDZ018>021-031>035-040>046-161800-
SOUTHWEST NORTH DAKOTA

CITY           SKY/WX    TMP DP  RH WIND       PRES   REMARKS
BISMARCK       CLOUDY    29  22  75 NE16      30.07R WCI  17
DICKINSON      CLOUDY    27  21  78 NE12      30.02R WCI  17
GARRISON         N/A     26  19  74 E18       30.09R WCI  13
HETTINGER ARPT CLOUDY    29  21  72 N10       30.01R WCI  20
$$

NDZ004>008-012>016-024-026-027-054-161800-
NORTHEAST NORTH DAKOTA

CITY           SKY/WX    TMP DP  RH WIND       PRES   REMARKS
GRAND FORKS    MOSUNNY   38   7  27 E18G28    30.09R
GRND FRKS AFB  CLOUDY    38   6  26 E15       30.13R
DEVILS LAKE    MOSUNNY   34   9  35 E20G29    30.12R
$$

NDZ022-023-025-028>030-036>039-047>053-161800-
SOUTHEAST NORTH DAKOTA

CITY           SKY/WX    TMP DP  RH WIND       PRES   REMARKS
FARGO          FLURRIES  31  22  69 NE20G26   30.05R WCI  19
JAMESTOWN      CLOUDY    28  21  75 NE18G25   30.04R WCI  15
$$




USA.gov is the U.S. government's official web portal to all federal, state and local government web resources and services.